[ hide orbit diagram ]
For accurate long-term ephemerides, please instead use our Horizons system.This orbit viewer was implemented using two-body methods, and hence should not be used for determining accurate long-term trajectories (over several years or decades) or planetary encounter circumstances.
Orbital Elements at Epoch 2459000.5 (2020-May-31.0) TDB
Reference: JPL 23 (heliocentric ecliptic J2000)
Element | Value | Uncertainty (1-sigma) | Units |
e | .09847430518408949 | 4.1807e-08 | |
a | 3.014862392507933 | 1.9401e-08 | au |
q | 2.717975913180073 | 1.3536e-07 | au |
i | 8.414387139847564 | 4.4069e-06 | deg |
node | 99.83862450100087 | 2.9005e-05 | deg |
peri | 263.1196588214131 | 3.6865e-05 | deg |
M | 256.6844795589095 | 2.4023e-05 | deg |
tp | 2459549.235093184782 (2021-Nov-30.73509318) | 0.00012923 | TDB |
period | 1912.051865035704 5.23 | 1.8457e-05 5.053e-08 | d yr |
n | .1882794115489528 | 1.8174e-09 | deg/d |
Q | 3.311748871835793 | 2.1312e-08 | au |
|
| | Orbit Determination Parameters
Additional Information
|
[ show covariance matrix ]
Physical Parameter Table
Parameter |
Symbol |
Value |
Units |
Sigma |
Reference |
Notes |
absolute magnitude |
H |
14.0 |
|
n/a |
MPO474005 |
|
diameter |
diameter |
5.305 |
km |
0.199 |
urn:nasa:pds:neowise_diameters_albedos::2.0[mainbelt] (http://adsabs.harvard.edu/abs/2011ApJ...741...68M) |
|
geometric albedo |
albedo |
0.300 |
|
0.095 |
urn:nasa:pds:neowise_diameters_albedos::2.0[mainbelt] (http://adsabs.harvard.edu/abs/2011ApJ...741...68M) |
|
|
18014 (1999 JC121) Discovered 1999-May-13 by LINEAR at Socorro |
Reference: 20001013/Numbers.arc | Last Updated: 2004-04-19 |
|
[ show close-approach data ]
|